MONITOR-4 (RS57S)

Last updated on Sun Apr 12 2026 00:03:15 GMT+0000 (Coordinated Universal Time)

1 57182U 23091S 26101.47900081 .00009197 00000+0 35273-3 0 9995 2 57182 97.5136 164.4525 0010999 342.1568 17.9282 15.26667277154110
UTC large
Height (km)
Speed (km/s)
/
Latitude / Longitude
Inclination (degrees)
Orbital Period (minutes)
Azimuth
Elevation
Range (km)
Doppler Factor

Next 0 passes for location: London (51.5072 / 0.1276)

Sorry there are no passes over London.
MONITOR-4 (RS57S)